SMF31 KSUU-KLSV

Flight info

Callsign SMF31
Flight time N/A
Altitude 23000
Route LIN DCT BTY J86 FUZZY
Aircraft V22/M-T/L

Departure

Time N/A
Airport Travis Air Force Base (KSUU)

Arrival

Time 2026-05-04 00:19
Airport Nellis Air Force Base (KLSV)
Time Latitude Longitude Altitude Speed Heading
2026-05-04 00:05 36.39742 -116.17591 22726 ft 343 kts 137°
2026-05-04 00:05 36.38166 -116.15375 22728 ft 343 kts 137°
2026-05-04 00:06 36.36586 -116.13156 22739 ft 344 kts 137°
2026-05-04 00:06 36.35003 -116.10933 22741 ft 344 kts 137°
2026-05-04 00:06 36.33419 -116.08711 22742 ft 343 kts 137°
2026-05-04 00:06 36.31836 -116.06493 22748 ft 344 kts 137°
2026-05-04 00:07 36.30251 -116.04271 22744 ft 344 kts 137°
2026-05-04 00:07 36.28666 -116.02053 22750 ft 344 kts 137°
2026-05-04 00:07 36.27077 -115.99831 22619 ft 346 kts 137°
2026-05-04 00:07 36.25467 -115.97585 21816 ft 348 kts 137°
2026-05-04 00:08 36.23876 -115.95360 21055 ft 344 kts 136°
2026-05-04 00:08 36.22344 -115.93112 20303 ft 342 kts 130°
2026-05-04 00:08 36.21358 -115.90397 19571 ft 350 kts 110°
2026-05-04 00:08 36.20898 -115.87429 18872 ft 353 kts 102°
2026-05-04 00:09 36.20664 -115.84412 18195 ft 351 kts 98°
2026-05-04 00:09 36.20522 -115.81408 17430 ft 347 kts 96°
2026-05-04 00:09 36.20566 -115.78440 16661 ft 343 kts 92°
2026-05-04 00:09 36.20673 -115.75502 15898 ft 336 kts 91°
2026-05-04 00:10 36.20790 -115.72679 15335 ft 316 kts 91°
2026-05-04 00:10 36.20901 -115.70117 14974 ft 283 kts 92°
2026-05-04 00:10 36.20995 -115.67769 14604 ft 265 kts 93°
2026-05-04 00:10 36.21082 -115.65544 14264 ft 254 kts 93°
2026-05-04 00:11 36.21164 -115.63169 14068 ft 304 kts 92°
2026-05-04 00:11 36.21282 -115.60384 13877 ft 340 kts 91°
2026-05-04 00:11 36.21413 -115.57393 13682 ft 356 kts 91°
2026-05-04 00:11 36.21538 -115.54320 13431 ft 357 kts 91°
2026-05-04 00:12 36.21662 -115.51243 13146 ft 357 kts 91°
2026-05-04 00:12 36.21783 -115.48171 12865 ft 356 kts 91°
2026-05-04 00:12 36.21900 -115.45141 12594 ft 359 kts 91°
2026-05-04 00:12 36.22025 -115.42007 12338 ft 359 kts 91°
2026-05-04 00:13 36.22143 -115.38925 12088 ft 359 kts 91°
2026-05-04 00:13 36.22259 -115.35862 11837 ft 360 kts 90°
2026-05-04 00:13 36.22381 -115.32768 11582 ft 360 kts 91°
2026-05-04 00:13 36.22499 -115.29634 11343 ft 360 kts 91°
2026-05-04 00:14 36.22613 -115.26566 11106 ft 361 kts 91°
2026-05-04 00:14 36.22730 -115.23476 10865 ft 360 kts 91°
2026-05-04 00:14 36.22833 -115.20419 10537 ft 321 kts 92°
2026-05-04 00:14 36.22548 -115.17762 9740 ft 297 kts 103°
2026-05-04 00:15 36.21922 -115.15505 9359 ft 261 kts 116°
2026-05-04 00:15 36.20994 -115.13754 8884 ft 228 kts 130°
2026-05-04 00:15 36.19962 -115.12471 8841 ft 193 kts 140°
2026-05-04 00:15 36.18985 -115.11546 8836 ft 159 kts 141°
2026-05-04 00:16 36.18572 -115.10534 8029 ft 112 kts 79°
2026-05-04 00:16 36.18861 -115.09834 6434 ft 132 kts 46°
2026-05-04 00:16 36.19559 -115.08942 5558 ft 138 kts 49°
2026-05-04 00:16 36.20081 -115.08156 4960 ft 98 kts 52°
2026-05-04 00:17 36.20590 -115.07334 4627 ft 131 kts 52°
2026-05-04 00:17 36.21112 -115.06532 4392 ft 122 kts 51°
2026-05-04 00:17 36.21630 -115.05789 4189 ft 107 kts 47°
2026-05-04 00:17 36.22230 -115.05048 4128 ft 120 kts 43°
2026-05-04 00:18 36.22832 -115.04416 4106 ft 125 kts 38°
2026-05-04 00:18 36.23497 -115.03803 4136 ft 113 kts 36°
2026-05-04 00:18 36.24056 -115.03302 3830 ft 89 kts 36°
2026-05-04 00:18 36.24442 -115.02934 3295 ft 56 kts 38°
2026-05-04 00:19 36.24785 -115.02581 3106 ft 69 kts 41°
2026-05-04 00:19 36.24673 -115.02189 3165 ft 51 kts 182°
2026-05-04 00:19 36.24435 -115.02336 2843 ft 36 kts 218°
2026-05-04 00:19 36.24222 -115.02555 2698 ft 40 kts 216°
2026-05-04 00:20 36.24000 -115.02781 2541 ft 43 kts 219°
2026-05-04 00:20 36.23779 -115.03020 2388 ft 41 kts 218°
2026-05-04 00:20 36.23540 -115.03249 2208 ft 44 kts 205°
2026-05-04 00:20 36.23252 -115.03344 2050 ft 40 kts 188°
2026-05-04 00:21 36.22994 -115.03322 1893 ft 31 kts 159°
2026-05-04 00:21 36.22904 -115.03248 1868 ft 0 kts 136°